Tracking 19242 objects as of 15-Aug-2018
HD Live streaming from Space Station
objects crossing your sky now

FENGYUN 1C DEB

Track FENGYUN 1C DEB now!
10-day predictions


NORAD ID: 31998
Int'l Code: 1999-025CQB
Perigee: 498.8 km
Apogee: 546.8 km
Inclination: 105.5 °
Period: 94.9 minutes
Semi major axis: 6893 km
RCS: 0.0125 m2 (small)
Launch date: May 10, 1999
Source: People's Republic of China (PRC)
Launch site: Taiyaun Space Center, China (TSC)

Note: This is SATELLITE DEBRIS
aabbcc
Your satellite tracking list
Your tracking list is empty




NASA's NSSDC Master Catalog

Two Line Element Set (TLE):
1 31998U 99025CQB 18226.81424573  .00012925  00000-0  65681-3 0  9996
2 31998 105.4996 212.7250 0034794  92.9392 267.5789 15.16764462597069
Source of the keplerian elements: AFSPC